Location: Walton
(43.6794°N, 81.3017°W)
Time: 16:22:19
(UTC+00:00)

Cosmos 2369 - Pass Details

Date: 09 December 2025
Orbit: 839 x 854 km, 71.0° (Epoch: 16 January)

Event Time Altitude Azimuth Distance (km) Brightness Sun altitude
Exits shadow 10:51:59 38° 283° (WNW) 1,270 4.1 -20.0°
Maximum altitude 10:53:07 43° 253° (WSW) 1,179 4.0 -19.8°
Drops below altitude 10° 10:58:24 10° 184° (S) 2,456 6.2 -18.9°
Sets 11:00:56 0° 177° (S) 3,385 7.1 -18.5°
